Regional Weather Roundup
Issued by NWS Albany, NY

Current Version | Previous Version | Text Only | Print | Product List | Glossary Off
Versions: 1 2 3 4 5 6 7 8 9 10 11 12 13 14 15 16 17 18 19 20 21 22 23 24 25 26 27 28 29 30 31 32 33 34 35 36 37 38 39 40 41 42 43 44 45 46 47 48 49 50
000 ASUS41 KALY 202210 RWRALY NEW YORK STATE HOURLY WEATHER ROUNDUP NATIONAL WEATHER SERVICE ALBANY NY 600 PM EDT MON AUG 20 2018 NOTE: "FAIR" INDICATES FEW OR NO CLOUDS BELOW 12,000 FEET WITH NO SIGNIFICANT WEATHER AND/OR NO OBSTRUCTIONS TO VISIBILITY. NYZ032-033-038>043-046>054-057>066-NYZ062>081-082-084-202300- EAST CITY SKY/WX TMP DP RH WIND PRES REMARKS ALBANY FAIR 77 59 53 SE5 30.11S GLENS FALLS FAIR 77 60 55 S5 30.10F POUGHKEEPSIE FAIR 75 61 61 E6 30.10S NEWBURGH PTSUNNY 73 66 78 SE7 30.13S MONTGOMERY CLOUDY 73 64 73 S6 30.11S WHITE PLAINS FAIR 72 63 73 SE7 30.13R ISLIP PTSUNNY 74 65 73 E8 30.11S NEW YORK CITY PTSUNNY 76 63 64 SE9 30.11S CENTRAL PARK PTSUNNY 73 64 73 CALM 30.14S $$ NYZ005>009-017-018-044>046-055-056-202300- CENTRAL CITY SKY/WX TMP DP RH WIND PRES REMARKS FULTON FAIR 77 60 55 CALM 30.08S SYRACUSE FAIR 76 62 62 SE10 30.07S ROME FAIR 77 61 57 E9 30.11S ELMIRA FAIR 75 61 61 SE6 30.07F BINGHAMTON PTSUNNY 71 60 68 SE5 30.12S $$ NYZ026>034-041>043-087-202300- NORTH CITY SKY/WX TMP DP RH WIND PRES REMARKS WATERTOWN FAIR 77 63 61 W6 30.08R FORT DRUM NOT AVBL OGDENSBURG FAIR 81 60 48 CALM 30.07S MASSENA FAIR 80 61 52 NE12 30.08S SARANAC LAKE PTSUNNY 74 55 51 S6 30.12S PLATTSBURGH FAIR 79 59 50 SE5 30.09F $$ NYZ001>004-010>016-019>021-085-202300- WEST CITY SKY/WX TMP DP RH WIND PRES REMARKS NIAGARA FALLS FAIR 79 63 57 S5 30.00F BUFFALO CLOUDY 79 63 57 SE10 30.01F DUNKIRK PTSUNNY 77 64 64 SE8 30.00S JAMESTOWN FAIR 72 62 71 SE8 30.06S WELLSVILLE CLOUDY 71 64 78 S6 30.13S ROCHESTER PTSUNNY 77 63 61 SE13 30.06R PENN YAN FAIR 76 60 57 VRB5 30.09S $$ KEY WCI = WIND CHILL INDEX VSB = VISIBILITY HX = HEAT INDEX $$

USA.gov is the U.S. government's official web portal to all federal, state and local government web resources and services.